Weather History for KRNM - February, 2013

Change the Weather History Date:

Tuesday, February 12, 2013

  Actual Average Record
Temperature  
Mean Temperature 42 °F 51 °F  
Max Temperature 60 °F 65 °F 82 °F (1985)
Min Temperature 23 °F 37 °F 23 °F (2013)
Degree Days  
Heating Degree Days 23 14  
Month to date heating degree days 202 176  
Since 1 July heating degree days 1514 1523  
Cooling Degree Days 0 0  
Month to date cooling degree days 0 0  
Year to date cooling degree days 0 1  
Moisture  
Dew Point 26 °F    
Average Humidity 56    
Maximum Humidity 92    
Minimum Humidity 20    
Precipitation  
Precipitation 0.00 in 0.12 in 1.28 in (2005)
Month to date precipitation 0.28 1.06  
Year to date precipitation 1.88 4.38  
Since 1 July precipitation 5.52  
Snow  
Snow 0.00 in - - ()
Month to date snowfall 0.0  
Year to date snowfall 0.0  
Since 1 July snowfall 0.0  
Snow Depth 0.00 in    
Sea Level Pressure  
Sea Level Pressure 30.27 in    
Wind  
Wind Speed 2 mph (WNW)    
Max Wind Speed 26 mph    
Max Gust Speed 26 mph    
Visibility 9 miles    
Events      
T = Trace of Precipitation, MM = Missing Value Source: NWS Daily Summary

Daily Weather History Graph

Daily Weather History Graph

Search for Another Location

Airport or City:

Trip Planner

Search our weather history database for the weather conditions in past years. The results will help you decide how hot, cold, wet, or windy it might be!

Date:

Astronomy

Feb. 12, 2013 Rise Set
Actual Time 6:33 AM PST 5:30 PM PST
Civil Twilight 6:08 AM PST 5:55 PM PST
Nautical Twilight 5:39 AM PST 6:25 PM PST
Astronomical Twilight 5:10 AM PST 6:53 PM PST
Moon 7:44 AM PST (2/12) 8:22 PM PST (2/12)
Length of Visible Light 11h 47m
Length of Day
10h 56m
Waxing Crescent, 8% of the Moon is Illuminated
Feb 12
Waxing Crescent
Feb 17
First Quarter
Feb 25
Full
Mar 4
Last Quarter
Mar 11
New

Hourly Weather History & Observations

Time (PST) Temp. Windchill Dew Point Humidity Pressure Visibility Wind Dir Wind Speed Gust Speed Precip Events Conditions
12:53 AM 28.9 °F - 27.0 °F 92% 30.25 in 4.0 mi Calm Calm - N/A   Clear
1:53 AM 28.9 °F - 24.1 °F 82% 30.24 in 10.0 mi Calm Calm - N/A   Clear
2:53 AM 27.0 °F - 23.0 °F 85% 30.25 in 10.0 mi Calm Calm - N/A   Clear
3:53 AM 27.0 °F - 23.0 °F 85% 30.25 in 9.0 mi Calm Calm - N/A   Clear
4:53 AM 26.1 °F - 21.9 °F 84% 30.27 in 10.0 mi Calm Calm - N/A   Clear
5:53 AM 25.0 °F - 21.0 °F 85% 30.29 in 10.0 mi Calm Calm - N/A   Clear
6:53 AM 26.1 °F - 21.9 °F 84% 30.32 in 10.0 mi Calm Calm - N/A   Clear
7:53 AM 33.1 °F - 28.0 °F 82% 30.34 in 10.0 mi Calm Calm - N/A   Clear
8:53 AM 46.9 °F - 28.0 °F 48% 30.33 in 10.0 mi Calm Calm - N/A   Clear
9:53 AM 53.1 °F - 19.0 °F 26% 30.32 in 10.0 mi Calm Calm - N/A   Clear
10:53 AM 55.0 °F - 17.1 °F 23% 30.31 in 10.0 mi WSW 3.5 mph - N/A   Clear
11:53 AM 57.9 °F - 18.0 °F 21% 30.29 in 10.0 mi WNW 8.1 mph - N/A   Clear
12:53 PM 57.9 °F - 18.0 °F 21% 30.26 in 10.0 mi WSW 5.8 mph 16.1 mph N/A   Clear
1:53 PM 60.1 °F - 19.9 °F 21% 30.23 in 10.0 mi WNW 10.4 mph - N/A   Clear
2:53 PM 59.0 °F - 21.9 °F 24% 30.23 in 10.0 mi NW 6.9 mph - N/A   Clear
3:53 PM 57.0 °F - 27.0 °F 32% 30.22 in 10.0 mi WSW 10.4 mph - N/A   Clear
4:53 PM 53.1 °F - 34.0 °F 48% 30.23 in 10.0 mi WNW 9.2 mph - N/A   Clear
5:53 PM 46.0 °F 43.1 °F 37.0 °F 71% 30.25 in 10.0 mi WNW 5.8 mph - N/A   Clear
6:53 PM 41.0 °F - 36.0 °F 82% 30.27 in 10.0 mi Calm Calm - N/A   Clear
7:53 PM 39.9 °F 37.8 °F 35.1 °F 83% 30.27 in 10.0 mi NE 3.5 mph - N/A   Clear
8:53 PM 34.0 °F - 32.0 °F 92% 30.28 in 9.0 mi Calm Calm - N/A   Clear
9:53 PM 35.1 °F - 32.0 °F 89% 30.27 in 8.0 mi Calm Calm - N/A   Clear
10:53 PM 34.0 °F - 30.9 °F 89% 30.26 in 5.0 mi Calm Calm - N/A   Clear
11:53 PM 30.9 °F - 28.9 °F 92% 30.25 in 7.0 mi Calm Calm - N/A   Clear